Location: Newark
(63.1158°N, 8.1461°E)
Time: 04:32:36
(UTC+00:00)

Envisat - Pass Details

Date: 16 December 2019
Orbit: 764 x 766 km, 98.1° (Epoch: 22 January)

Event Time Altitude Azimuth Distance (km) Brightness Sun altitude
Rises 18:58:40 0° 220° (SW) 3,232 6.6 -31.4°
Reaches altitude 10° 19:01:53 10° 242° (WSW) 2,311 6.0 -31.8°
Maximum altitude 19:05:00 16° 280° (W) 1,920 5.8 -32.1°
Drops below altitude 10° 19:08:09 10° 318° (NW) 2,319 6.1 -32.5°
Sets 19:11:23 0° 340° (NNW) 3,251 6.7 -32.8°
